contact:dominique.lefevre@mio.osupytheas.fr, maurice.libes@osupytheas.fr, didier.mallarino@osupytheas.fr
Project:EMSO http://www.emso-fr.org/EMSO-France
Depth: 2436.0 m
Title:EMSO Ligure Ouest : Data MII capteur CSTAR
DateTime,Latitude,Longitude,Instrument_Serial,Reference_Counts,Signal_Counts,Corrected_Signal_raw_counts,Calculated_Beam_c_inverse_meters,Internal_thermistor_counts
DateTime,Latitude,Longitude,Instrument_Serial,Reference_Counts,Signal_Counts,Corrected_Signal_raw_counts,Calculated_Beam_c_inverse_meters,Internal_thermistor_counts
2019-09-20T00:01:07,42.805,6.029,CST-1368DR,7944,11122,15381,0.061,551
2019-09-20T00:04:08,42.805,6.029,CST-1368DR,7944,11120,15380,0.061,551
2019-09-20T00:07:10,42.805,6.029,CST-1368DR,7943,11121,15383,0.060,551
2019-09-20T00:10:12,42.805,6.029,CST-1368DR,7944,11122,15381,0.061,551
2019-09-20T00:13:13,42.805,6.029,CST-1368DR,7943,11118,15378,0.061,550
2019-09-20T00:16:15,42.805,6.029,CST-1368DR,7943,11119,15380,0.061,551
2019-09-20T00:19:16,42.805,6.029,CST-1368DR,7943,11117,15377,0.062,551
2019-09-20T00:22:18,42.805,6.029,CST-1368DR,7943,11109,15366,0.065,551
2019-09-20T00:25:20,42.805,6.029,CST-1368DR,7943,11117,15377,0.062,551
2019-09-20T00:28:22,42.805,6.029,CST-1368DR,7943,11121,15382,0.060,551
2019-09-20T00:31:24,42.805,6.029,CST-1368DR,7943,11114,15373,0.063,551
2019-09-20T00:34:25,42.805,6.029,CST-1368DR,7943,11112,15370,0.064,551
2019-09-20T00:37:27,42.805,6.029,CST-1368DR,7943,11113,15371,0.063,550
2019-09-20T00:40:29,42.805,6.029,CST-1368DR,7943,11118,15378,0.061,551
2019-09-20T00:43:30,42.805,6.029,CST-1368DR,7943,11118,15378,0.061,551
2019-09-20T00:46:32,42.805,6.029,CST-1368DR,7943,11119,15379,0.061,551
2019-09-20T00:49:34,42.805,6.029,CST-1368DR,7943,11120,15381,0.061,551
2019-09-20T00:52:35,42.805,6.029,CST-1368DR,7943,11120,15381,0.061,551
2019-09-20T00:55:37,42.805,6.029,CST-1368DR,7943,11120,15381,0.061,551
2019-09-20T00:58:38,42.805,6.029,CST-1368DR,7943,11121,15382,0.060,551
2019-09-20T01:01:40,42.805,6.029,CST-1368DR,7943,11118,15378,0.061,551
2019-09-20T01:04:42,42.805,6.029,CST-1368DR,7943,11119,15380,0.061,551
2019-09-20T01:07:44,42.805,6.029,CST-1368DR,7943,11119,15380,0.061,551
2019-09-20T01:10:45,42.805,6.029,CST-1368DR,7943,11118,15379,0.061,551
2019-09-20T01:13:47,42.805,6.029,CST-1368DR,7943,11120,15380,0.061,551
2019-09-20T01:16:48,42.805,6.029,CST-1368DR,7943,11120,15381,0.061,551
2019-09-20T01:19:50,42.805,6.029,CST-1368DR,7943,11118,15378,0.061,551
2019-09-20T01:22:52,42.805,6.029,CST-1368DR,7943,11119,15380,0.061,551
2019-09-20T01:25:53,42.805,6.029,CST-1368DR,7943,11118,15379,0.061,551
2019-09-20T01:28:55,42.805,6.029,CST-1368DR,7943,11118,15378,0.061,551
2019-09-20T01:31:57,42.805,6.029,CST-1368DR,7943,11117,15377,0.062,551
2019-09-20T01:34:58,42.805,6.029,CST-1368DR,7943,11118,15378,0.061,551
2019-09-20T01:38:00,42.805,6.029,CST-1368DR,7943,11119,15379,0.061,551
2019-09-20T01:41:01,42.805,6.029,CST-1368DR,7943,11120,15381,0.061,550
2019-09-20T01:44:03,42.805,6.029,CST-1368DR,7943,11117,15377,0.062,551
2019-09-20T01:47:05,42.805,6.029,CST-1368DR,7943,11120,15381,0.061,551
2019-09-20T01:50:06,42.805,6.029,CST-1368DR,7943,11118,15378,0.061,551
2019-09-20T01:53:08,42.805,6.029,CST-1368DR,7943,11118,15378,0.061,551
2019-09-20T01:56:10,42.805,6.029,CST-1368DR,7943,11119,15379,0.061,551
2019-09-20T01:59:11,42.805,6.029,CST-1368DR,7943,11114,15373,0.063,550
2019-09-20T02:02:13,42.805,6.029,CST-1368DR,7943,11119,15380,0.061,550
2019-09-20T02:05:15,42.805,6.029,CST-1368DR,7943,11119,15379,0.061,551
2019-09-20T02:08:16,42.805,6.029,CST-1368DR,7943,11117,15377,0.062,551
2019-09-20T02:11:18,42.805,6.029,CST-1368DR,7942,11119,15382,0.060,551
2019-09-20T02:14:19,42.805,6.029,CST-1368DR,7943,11119,15379,0.061,551
2019-09-20T02:17:21,42.805,6.029,CST-1368DR,7943,11117,15377,0.062,551
2019-09-20T02:20:23,42.805,6.029,CST-1368DR,7943,11119,15380,0.061,551
2019-09-20T02:23:24,42.805,6.029,CST-1368DR,7942,11116,15377,0.062,551
2019-09-20T02:26:26,42.805,6.029,CST-1368DR,7942,11118,15380,0.061,551
2019-09-20T02:29:28,42.805,6.029,CST-1368DR,7942,11119,15382,0.060,551
2019-09-20T02:32:29,42.805,6.029,CST-1368DR,7942,11118,15380,0.061,551
2019-09-20T02:35:31,42.805,6.029,CST-1368DR,7942,11119,15382,0.060,551
2019-09-20T02:38:33,42.805,6.029,CST-1368DR,7942,11119,15382,0.060,551
2019-09-20T02:41:34,42.805,6.029,CST-1368DR,7942,11118,15381,0.061,551
2019-09-20T02:44:36,42.805,6.029,CST-1368DR,7942,11119,15381,0.061,551
2019-09-20T02:47:38,42.805,6.029,CST-1368DR,7942,11116,15377,0.062,551
2019-09-20T02:50:39,42.805,6.029,CST-1368DR,7942,11119,15382,0.060,551
2019-09-20T02:53:41,42.805,6.029,CST-1368DR,7942,11118,15380,0.061,550
2019-09-20T02:56:43,42.805,6.029,CST-1368DR,7942,11118,15380,0.061,551
2019-09-20T02:59:44,42.805,6.029,CST-1368DR,7942,11119,15381,0.061,551
2019-09-20T03:02:46,42.805,6.029,CST-1368DR,7942,11119,15382,0.060,551
2019-09-20T03:05:48,42.805,6.029,CST-1368DR,7942,11118,15381,0.061,551
2019-09-20T03:08:49,42.805,6.029,CST-1368DR,7942,11119,15381,0.061,551
2019-09-20T03:11:51,42.805,6.029,CST-1368DR,7942,11119,15381,0.061,551
2019-09-20T03:14:53,42.805,6.029,CST-1368DR,7942,11118,15379,0.061,551
2019-09-20T03:17:54,42.805,6.029,CST-1368DR,7942,11119,15382,0.060,551
2019-09-20T03:20:56,42.805,6.029,CST-1368DR,7942,11112,15372,0.063,551
2019-09-20T03:23:57,42.805,6.029,CST-1368DR,7942,11119,15381,0.061,551
2019-09-20T03:26:59,42.805,6.029,CST-1368DR,7942,11119,15381,0.061,551
2019-09-20T03:30:01,42.805,6.029,CST-1368DR,7942,11118,15381,0.061,551
2019-09-20T03:33:02,42.805,6.029,CST-1368DR,7942,11113,15373,0.063,551
2019-09-20T03:36:04,42.805,6.029,CST-1368DR,7942,11119,15381,0.061,551
2019-09-20T03:39:06,42.805,6.029,CST-1368DR,7942,11118,15380,0.061,551
2019-09-20T03:42:07,42.805,6.029,CST-1368DR,7942,11114,15374,0.062,551
2019-09-20T03:45:09,42.805,6.029,CST-1368DR,7942,11118,15380,0.061,550
2019-09-20T03:48:11,42.805,6.029,CST-1368DR,7942,11118,15380,0.061,551
2019-09-20T03:51:12,42.805,6.029,CST-1368DR,7942,11116,15377,0.062,551
2019-09-20T03:54:14,42.805,6.029,CST-1368DR,7942,11112,15372,0.063,551
2019-09-20T03:57:15,42.805,6.029,CST-1368DR,7942,11118,15380,0.061,551
2019-09-20T04:00:17,42.805,6.029,CST-1368DR,7942,11112,15372,0.063,551
2019-09-20T04:03:19,42.805,6.029,CST-1368DR,7942,11074,15320,0.077,551
2019-09-20T04:06:20,42.805,6.029,CST-1368DR,7942,11118,15380,0.061,551
2019-09-20T04:09:22,42.805,6.029,CST-1368DR,7942,11118,15380,0.061,551
2019-09-20T04:12:24,42.805,6.029,CST-1368DR,7941,11116,15379,0.061,551
2019-09-20T04:15:26,42.805,6.029,CST-1368DR,7942,11118,15380,0.061,551
2019-09-20T04:18:27,42.805,6.029,CST-1368DR,7942,11118,15381,0.061,551
2019-09-20T04:21:29,42.805,6.029,CST-1368DR,7942,11114,15374,0.062,551
2019-09-20T04:24:31,42.805,6.029,CST-1368DR,7942,11116,15378,0.061,551
2019-09-20T04:27:32,42.805,6.029,CST-1368DR,7942,11117,15378,0.061,551
2019-09-20T04:30:34,42.805,6.029,CST-1368DR,7941,11117,15380,0.061,551
2019-09-20T04:33:35,42.805,6.029,CST-1368DR,7941,11116,15379,0.061,551
2019-09-20T04:36:37,42.805,6.029,CST-1368DR,7942,11117,15379,0.061,551
2019-09-20T04:39:39,42.805,6.029,CST-1368DR,7941,11117,15381,0.061,551
2019-09-20T04:42:40,42.805,6.029,CST-1368DR,7941,11118,15382,0.060,551
2019-09-20T04:45:42,42.805,6.029,CST-1368DR,7941,11118,15382,0.060,551
2019-09-20T04:48:44,42.805,6.029,CST-1368DR,7941,11118,15382,0.060,551
2019-09-20T04:51:45,42.805,6.029,CST-1368DR,7941,11116,15380,0.061,550
2019-09-20T04:54:47,42.805,6.029,CST-1368DR,7941,11115,15378,0.061,551
2019-09-20T04:57:48,42.805,6.029,CST-1368DR,7941,11116,15380,0.061,551
2019-09-20T05:00:50,42.805,6.029,CST-1368DR,7941,11117,15381,0.061,551
2019-09-20T05:03:52,42.805,6.029,CST-1368DR,7941,11118,15381,0.061,551
2019-09-20T05:06:53,42.805,6.029,CST-1368DR,7941,11118,15381,0.061,550
2019-09-20T05:09:55,42.805,6.029,CST-1368DR,7941,11116,15379,0.061,551
2019-09-20T05:12:57,42.805,6.029,CST-1368DR,7941,11119,15383,0.060,551
2019-09-20T05:15:58,42.805,6.029,CST-1368DR,7941,11115,15378,0.061,551
2019-09-20T05:19:00,42.805,6.029,CST-1368DR,7941,11119,15383,0.060,551
2019-09-20T05:22:02,42.805,6.029,CST-1368DR,7941,11114,15377,0.062,551
2019-09-20T05:25:03,42.805,6.029,CST-1368DR,7941,11117,15380,0.061,551
2019-09-20T05:28:05,42.805,6.029,CST-1368DR,7941,11117,15381,0.061,551
2019-09-20T05:31:07,42.805,6.029,CST-1368DR,7941,11117,15381,0.061,551
2019-09-20T05:34:08,42.805,6.029,CST-1368DR,7941,11116,15380,0.061,551
2019-09-20T05:37:10,42.805,6.029,CST-1368DR,7941,11115,15378,0.061,551
2019-09-20T05:40:11,42.805,6.029,CST-1368DR,7941,11116,15379,0.061,551
2019-09-20T05:43:13,42.805,6.029,CST-1368DR,7941,11118,15382,0.060,551
2019-09-20T05:46:15,42.805,6.029,CST-1368DR,7941,11117,15381,0.061,550
2019-09-20T05:49:16,42.805,6.029,CST-1368DR,7941,11119,15383,0.060,550
2019-09-20T05:52:18,42.805,6.029,CST-1368DR,7941,11118,15382,0.060,550
2019-09-20T05:55:20,42.805,6.029,CST-1368DR,7941,11118,15381,0.061,551
2019-09-20T05:58:22,42.805,6.029,CST-1368DR,7941,11118,15382,0.060,550
2019-09-20T06:01:24,42.805,6.029,CST-1368DR,7941,11118,15381,0.061,550
2019-09-20T06:04:25,42.805,6.029,CST-1368DR,7941,11116,15379,0.061,551
2019-09-20T06:07:27,42.805,6.029,CST-1368DR,7941,11116,15379,0.061,551
2019-09-20T06:10:28,42.805,6.029,CST-1368DR,7941,11115,15378,0.061,551
2019-09-20T06:13:30,42.805,6.029,CST-1368DR,7941,11117,15380,0.061,551
2019-09-20T06:16:32,42.805,6.029,CST-1368DR,7941,11115,15378,0.061,551
2019-09-20T06:19:33,42.805,6.029,CST-1368DR,7941,11117,15380,0.061,551
2019-09-20T06:22:35,42.805,6.029,CST-1368DR,7941,11119,15383,0.060,551
2019-09-20T06:25:37,42.805,6.029,CST-1368DR,7941,11118,15381,0.061,551
2019-09-20T06:28:38,42.805,6.029,CST-1368DR,7941,11116,15379,0.061,551
2019-09-20T06:31:40,42.805,6.029,CST-1368DR,7941,11115,15377,0.062,551
2019-09-20T06:34:42,42.805,6.029,CST-1368DR,7941,11115,15377,0.062,551
2019-09-20T06:37:43,42.805,6.029,CST-1368DR,7941,11115,15377,0.062,550
2019-09-20T06:40:45,42.805,6.029,CST-1368DR,7941,11116,15379,0.061,551
2019-09-20T06:43:47,42.805,6.029,CST-1368DR,7941,11115,15378,0.061,551
2019-09-20T06:46:48,42.805,6.029,CST-1368DR,7941,11115,15378,0.061,551
2019-09-20T06:49:50,42.805,6.029,CST-1368DR,7941,11117,15381,0.061,551
2019-09-20T06:52:52,42.805,6.029,CST-1368DR,7941,11116,15379,0.061,551
2019-09-20T06:55:53,42.805,6.029,CST-1368DR,7941,11116,15379,0.061,550
2019-09-20T06:58:55,42.805,6.029,CST-1368DR,7941,11116,15379,0.061,551
2019-09-20T07:01:57,42.805,6.029,CST-1368DR,7941,11113,15375,0.062,551
2019-09-20T07:04:59,42.805,6.029,CST-1368DR,7940,11109,15372,0.063,551
2019-09-20T07:08:00,42.805,6.029,CST-1368DR,7941,11116,15380,0.061,551
2019-09-20T07:11:02,42.805,6.029,CST-1368DR,7941,11117,15381,0.061,551
2019-09-20T07:14:04,42.805,6.029,CST-1368DR,7940,11112,15375,0.062,550
2019-09-20T07:17:05,42.805,6.029,CST-1368DR,7940,11117,15382,0.060,551
2019-09-20T07:20:07,42.805,6.029,CST-1368DR,7940,11114,15378,0.061,551
2019-09-20T07:23:09,42.805,6.029,CST-1368DR,7940,11111,15374,0.062,551
2019-09-20T07:26:10,42.805,6.029,CST-1368DR,7940,11117,15382,0.060,551
2019-09-20T07:29:12,42.805,6.029,CST-1368DR,7940,11116,15381,0.061,551
2019-09-20T07:32:13,42.805,6.029,CST-1368DR,7940,11116,15381,0.061,551
2019-09-20T07:35:15,42.805,6.029,CST-1368DR,7940,11115,15380,0.061,551
2019-09-20T07:38:17,42.805,6.029,CST-1368DR,7940,11117,15382,0.060,551
2019-09-20T07:41:18,42.805,6.029,CST-1368DR,7940,11116,15381,0.061,551
2019-09-20T07:44:20,42.805,6.029,CST-1368DR,7940,11116,15381,0.061,550
2019-09-20T07:47:22,42.805,6.029,CST-1368DR,7940,11114,15379,0.061,551
2019-09-20T07:50:23,42.805,6.029,CST-1368DR,7940,11116,15381,0.061,551
2019-09-20T07:53:25,42.805,6.029,CST-1368DR,7940,11118,15383,0.060,551
2019-09-20T07:56:27,42.805,6.029,CST-1368DR,7940,11118,15383,0.060,551
2019-09-20T07:59:28,42.805,6.029,CST-1368DR,7940,11116,15381,0.061,551
2019-09-20T08:02:30,42.805,6.029,CST-1368DR,7940,11117,15382,0.060,551
2019-09-20T08:05:31,42.805,6.029,CST-1368DR,7940,11116,15381,0.061,551
2019-09-20T08:08:33,42.805,6.029,CST-1368DR,7940,11114,15379,0.061,551
2019-09-20T08:11:35,42.805,6.029,CST-1368DR,7940,11113,15376,0.062,551
2019-09-20T08:14:36,42.805,6.029,CST-1368DR,7940,11115,15379,0.061,551
2019-09-20T08:17:38,42.805,6.029,CST-1368DR,7940,11114,15379,0.061,550
2019-09-20T08:20:40,42.805,6.029,CST-1368DR,7940,11117,15382,0.060,551
2019-09-20T08:23:41,42.805,6.029,CST-1368DR,7940,11116,15380,0.061,551
2019-09-20T08:26:43,42.805,6.029,CST-1368DR,7940,11112,15376,0.062,551
2019-09-20T08:29:45,42.805,6.029,CST-1368DR,7940,11112,15375,0.062,551
2019-09-20T08:32:46,42.805,6.029,CST-1368DR,7940,11116,15381,0.061,551
2019-09-20T08:35:48,42.805,6.029,CST-1368DR,7940,11111,15374,0.062,551
2019-09-20T08:38:50,42.805,6.029,CST-1368DR,7940,11112,15375,0.062,551
2019-09-20T08:41:51,42.805,6.029,CST-1368DR,7940,11112,15375,0.062,551
2019-09-20T08:44:53,42.805,6.029,CST-1368DR,7940,11115,15379,0.061,551
2019-09-20T08:47:54,42.805,6.029,CST-1368DR,7940,11115,15379,0.061,551
2019-09-20T08:50:56,42.805,6.029,CST-1368DR,7940,11116,15381,0.061,551
2019-09-20T08:53:58,42.805,6.029,CST-1368DR,7940,11115,15379,0.061,551
2019-09-20T08:56:59,42.805,6.029,CST-1368DR,7940,11117,15382,0.060,551
2019-09-20T09:00:01,42.805,6.029,CST-1368DR,7940,11116,15380,0.061,551
2019-09-20T09:03:03,42.805,6.029,CST-1368DR,7939,11116,15383,0.060,551
2019-09-20T09:06:05,42.805,6.029,CST-1368DR,7939,11110,15374,0.062,551
2019-09-20T09:09:06,42.805,6.029,CST-1368DR,7940,11117,15382,0.060,551
2019-09-20T09:12:08,42.805,6.029,CST-1368DR,7940,11117,15383,0.060,550
2019-09-20T09:15:09,42.805,6.029,CST-1368DR,7940,11116,15381,0.061,551
2019-09-20T09:18:11,42.805,6.029,CST-1368DR,7940,11110,15372,0.063,551
2019-09-20T09:21:13,42.805,6.029,CST-1368DR,7939,11109,15373,0.063,551
2019-09-20T09:24:14,42.805,6.029,CST-1368DR,7939,11115,15381,0.061,551
2019-09-20T09:27:16,42.805,6.029,CST-1368DR,7939,11106,15369,0.064,551
2019-09-20T09:30:18,42.805,6.029,CST-1368DR,7939,11114,15380,0.061,551
2019-09-20T09:33:19,42.805,6.029,CST-1368DR,7939,11114,15380,0.061,551
2019-09-20T09:36:21,42.805,6.029,CST-1368DR,7939,11115,15381,0.061,551
2019-09-20T09:39:23,42.805,6.029,CST-1368DR,7939,11116,15382,0.060,551
2019-09-20T09:42:24,42.805,6.029,CST-1368DR,7939,11111,15376,0.062,551
2019-09-20T09:45:26,42.805,6.029,CST-1368DR,7939,11113,15378,0.061,551
2019-09-20T09:48:28,42.805,6.029,CST-1368DR,7939,11111,15376,0.062,551
2019-09-20T09:51:29,42.805,6.029,CST-1368DR,7939,11109,15373,0.063,551
2019-09-20T09:54:31,42.805,6.029,CST-1368DR,7939,11114,15380,0.061,551
2019-09-20T09:57:33,42.805,6.029,CST-1368DR,7939,11109,15372,0.063,551
2019-09-20T10:00:34,42.805,6.029,CST-1368DR,7939,11114,15380,0.061,551
2019-09-20T10:03:36,42.805,6.029,CST-1368DR,7939,11115,15381,0.061,551
2019-09-20T10:06:38,42.805,6.029,CST-1368DR,7939,11114,15380,0.061,551
2019-09-20T10:09:39,42.805,6.029,CST-1368DR,7939,11113,15378,0.061,551
2019-09-20T10:12:41,42.805,6.029,CST-1368DR,7939,11112,15377,0.062,551
2019-09-20T10:15:42,42.805,6.029,CST-1368DR,7939,11113,15379,0.061,551
2019-09-20T10:18:44,42.805,6.029,CST-1368DR,7939,11112,15377,0.062,550
2019-09-20T10:21:46,42.805,6.029,CST-1368DR,7939,11112,15378,0.061,551
2019-09-20T10:24:48,42.805,6.029,CST-1368DR,7939,11114,15380,0.061,551
2019-09-20T10:27:49,42.805,6.029,CST-1368DR,7939,11115,15382,0.060,551
2019-09-20T10:30:51,42.805,6.029,CST-1368DR,7939,11115,15381,0.061,551
2019-09-20T10:33:53,42.805,6.029,CST-1368DR,7939,11113,15378,0.061,551
2019-09-20T10:36:54,42.805,6.029,CST-1368DR,7939,11111,15376,0.062,551
2019-09-20T10:39:56,42.805,6.029,CST-1368DR,7939,11113,15378,0.061,551
2019-09-20T10:42:58,42.805,6.029,CST-1368DR,7939,11115,15381,0.061,551
2019-09-20T10:45:59,42.805,6.029,CST-1368DR,7939,11113,15379,0.061,551
2019-09-20T10:49:01,42.805,6.029,CST-1368DR,7939,11113,15378,0.061,551
2019-09-20T10:52:02,42.805,6.029,CST-1368DR,7939,11112,15378,0.061,551
2019-09-20T10:55:04,42.805,6.029,CST-1368DR,7939,11110,15374,0.062,551
2019-09-20T10:58:06,42.805,6.029,CST-1368DR,7939,11114,15380,0.061,551
2019-09-20T11:01:07,42.805,6.029,CST-1368DR,7939,11115,15381,0.061,551
2019-09-20T11:04:09,42.805,6.029,CST-1368DR,7939,11113,15379,0.061,551
2019-09-20T11:07:11,42.805,6.029,CST-1368DR,7939,11114,15380,0.061,551
2019-09-20T11:10:12,42.805,6.029,CST-1368DR,7939,11113,15378,0.061,551
2019-09-20T11:13:14,42.805,6.029,CST-1368DR,7939,11114,15379,0.061,551
2019-09-20T11:16:16,42.805,6.029,CST-1368DR,7939,11114,15380,0.061,551
2019-09-20T11:19:17,42.805,6.029,CST-1368DR,7939,11114,15379,0.061,551
2019-09-20T11:22:19,42.805,6.029,CST-1368DR,7939,11111,15376,0.062,551
2019-09-20T11:25:21,42.805,6.029,CST-1368DR,7939,11113,15379,0.061,551
2019-09-20T11:28:23,42.805,6.029,CST-1368DR,7939,11114,15380,0.061,551
2019-09-20T11:31:25,42.805,6.029,CST-1368DR,7939,11113,15378,0.061,550
2019-09-20T11:34:26,42.805,6.029,CST-1368DR,7939,11114,15379,0.061,551
2019-09-20T11:37:28,42.805,6.029,CST-1368DR,7939,11112,15377,0.062,551
2019-09-20T11:40:29,42.805,6.029,CST-1368DR,7939,11112,15378,0.061,551
2019-09-20T11:43:31,42.805,6.029,CST-1368DR,7939,11111,15376,0.062,550
2019-09-20T11:46:33,42.805,6.029,CST-1368DR,7939,11112,15378,0.061,551
2019-09-20T11:49:34,42.805,6.029,CST-1368DR,7939,11090,15347,0.070,550
2019-09-20T11:52:36,42.805,6.029,CST-1368DR,7939,11110,15374,0.062,551
2019-09-20T11:55:38,42.805,6.029,CST-1368DR,7939,11109,15373,0.063,551
2019-09-20T11:58:39,42.805,6.029,CST-1368DR,7939,11113,15378,0.061,550
2019-09-20T12:01:41,42.805,6.029,CST-1368DR,7939,11113,15379,0.061,550
2019-09-20T12:04:43,42.805,6.029,CST-1368DR,7939,11112,15377,0.062,551
2019-09-20T12:07:44,42.805,6.029,CST-1368DR,7939,11112,15377,0.062,551
2019-09-20T12:10:46,42.805,6.029,CST-1368DR,7939,11112,15377,0.062,551
2019-09-20T12:13:47,42.805,6.029,CST-1368DR,7939,11113,15378,0.061,551
2019-09-20T12:16:49,42.805,6.029,CST-1368DR,7939,11113,15378,0.061,551
2019-09-20T12:19:51,42.805,6.029,CST-1368DR,7939,11112,15377,0.062,551
2019-09-20T12:22:52,42.805,6.029,CST-1368DR,7939,11113,15379,0.061,551
2019-09-20T12:25:54,42.805,6.029,CST-1368DR,7939,11114,15380,0.061,551
2019-09-20T12:28:56,42.805,6.029,CST-1368DR,7939,11113,15378,0.061,551
2019-09-20T12:31:57,42.805,6.029,CST-1368DR,7939,11112,15378,0.061,551
2019-09-20T12:34:59,42.805,6.029,CST-1368DR,7938,11111,15378,0.061,551
2019-09-20T12:38:01,42.805,6.029,CST-1368DR,7938,11106,15371,0.063,550
2019-09-20T12:41:02,42.805,6.029,CST-1368DR,7938,11108,15374,0.062,551
2019-09-20T12:44:04,42.805,6.029,CST-1368DR,7939,11110,15375,0.062,551
2019-09-20T12:47:06,42.805,6.029,CST-1368DR,7938,11110,15376,0.062,550
2019-09-20T12:50:07,42.805,6.029,CST-1368DR,7938,11113,15380,0.061,551
2019-09-20T12:53:09,42.805,6.029,CST-1368DR,7938,11107,15372,0.063,551
2019-09-20T12:56:11,42.805,6.029,CST-1368DR,7938,11112,15379,0.061,551
2019-09-20T12:59:12,42.805,6.029,CST-1368DR,7938,11114,15381,0.061,550
2019-09-20T13:02:14,42.805,6.029,CST-1368DR,7938,11112,15378,0.061,551
2019-09-20T13:05:16,42.805,6.029,CST-1368DR,7938,11111,15377,0.062,551
2019-09-20T13:08:17,42.805,6.029,CST-1368DR,7938,11109,15374,0.062,551
2019-09-20T13:11:19,42.805,6.029,CST-1368DR,7938,11112,15379,0.061,550
2019-09-20T13:14:21,42.805,6.029,CST-1368DR,7938,11114,15381,0.061,551
2019-09-20T13:17:22,42.805,6.029,CST-1368DR,7938,11111,15378,0.061,551
2019-09-20T13:20:24,42.805,6.029,CST-1368DR,7938,11112,15379,0.061,551
2019-09-20T13:23:26,42.805,6.029,CST-1368DR,7938,11110,15376,0.062,551
2019-09-20T13:26:27,42.805,6.029,CST-1368DR,7938,11111,15378,0.061,551
2019-09-20T13:29:29,42.805,6.029,CST-1368DR,7938,11113,15380,0.061,551
2019-09-20T13:32:30,42.805,6.029,CST-1368DR,7938,11114,15381,0.061,551
2019-09-20T13:35:32,42.805,6.029,CST-1368DR,7938,11112,15379,0.061,551
2019-09-20T13:38:34,42.805,6.029,CST-1368DR,7938,11111,15377,0.062,550
2019-09-20T13:41:35,42.805,6.029,CST-1368DR,7938,11112,15379,0.061,551
2019-09-20T13:44:37,42.805,6.029,CST-1368DR,7938,11112,15379,0.061,551
2019-09-20T13:47:39,42.805,6.029,CST-1368DR,7938,11112,15379,0.061,551
2019-09-20T13:50:40,42.805,6.029,CST-1368DR,7934,10498,14535,0.287,551
2019-09-20T13:53:42,42.805,6.029,CST-1368DR,7938,11109,15375,0.062,550
2019-09-20T13:56:44,42.805,6.029,CST-1368DR,7938,11111,15378,0.061,551
2019-09-20T13:59:45,42.805,6.029,CST-1368DR,7938,11111,15378,0.061,551
2019-09-20T14:02:47,42.805,6.029,CST-1368DR,7938,11111,15378,0.061,551
2019-09-20T14:05:48,42.805,6.029,CST-1368DR,7938,11109,15374,0.062,551
2019-09-20T14:08:50,42.805,6.029,CST-1368DR,7938,11112,15379,0.061,551
2019-09-20T14:11:52,42.805,6.029,CST-1368DR,7938,11111,15378,0.061,551
2019-09-20T14:14:53,42.805,6.029,CST-1368DR,7938,11113,15380,0.061,551
2019-09-20T14:17:55,42.805,6.029,CST-1368DR,7938,11107,15372,0.063,551
2019-09-20T14:20:57,42.805,6.029,CST-1368DR,7938,11112,15379,0.061,551
2019-09-20T14:23:58,42.805,6.029,CST-1368DR,7938,11111,15378,0.061,551
2019-09-20T14:27:00,42.805,6.029,CST-1368DR,7938,11112,15378,0.061,551
2019-09-20T14:30:02,42.805,6.029,CST-1368DR,7938,11111,15377,0.062,551
2019-09-20T14:33:03,42.805,6.029,CST-1368DR,7938,11111,15377,0.062,551
2019-09-20T14:36:05,42.805,6.029,CST-1368DR,7938,11108,15373,0.063,551
2019-09-20T14:39:07,42.805,6.029,CST-1368DR,7938,11111,15377,0.062,551
2019-09-20T14:42:08,42.805,6.029,CST-1368DR,7937,11108,15376,0.062,551
2019-09-20T14:45:10,42.805,6.029,CST-1368DR,7937,11111,15379,0.061,551
2019-09-20T14:48:12,42.805,6.029,CST-1368DR,7937,11109,15376,0.062,551
2019-09-20T14:51:13,42.805,6.029,CST-1368DR,7937,11108,15375,0.062,551
2019-09-20T14:54:15,42.805,6.029,CST-1368DR,7937,11109,15376,0.062,551
2019-09-20T14:57:17,42.805,6.029,CST-1368DR,7937,11111,15380,0.061,551
2019-09-20T15:00:18,42.805,6.029,CST-1368DR,7937,11108,15376,0.062,551
2019-09-20T15:03:20,42.805,6.029,CST-1368DR,7937,11108,15375,0.062,551
2019-09-20T15:06:21,42.805,6.029,CST-1368DR,7937,11111,15380,0.061,551
2019-09-20T15:09:23,42.805,6.029,CST-1368DR,7937,11111,15379,0.061,551
2019-09-20T15:12:25,42.805,6.029,CST-1368DR,7937,11112,15380,0.061,550
2019-09-20T15:15:26,42.805,6.029,CST-1368DR,7937,11112,15380,0.061,551
2019-09-20T15:18:28,42.805,6.029,CST-1368DR,7937,11112,15380,0.061,551
2019-09-20T15:21:30,42.805,6.029,CST-1368DR,7937,11106,15373,0.063,550
2019-09-20T15:24:31,42.805,6.029,CST-1368DR,7937,11111,15379,0.061,551
2019-09-20T15:27:33,42.805,6.029,CST-1368DR,7937,11108,15376,0.062,551
2019-09-20T15:30:34,42.805,6.029,CST-1368DR,7937,11110,15378,0.061,550
2019-09-20T15:33:36,42.805,6.029,CST-1368DR,7937,11112,15380,0.061,551
2019-09-20T15:36:38,42.805,6.029,CST-1368DR,7937,11110,15378,0.061,551
2019-09-20T15:39:39,42.805,6.029,CST-1368DR,7937,11111,15379,0.061,551
2019-09-20T15:42:41,42.805,6.029,CST-1368DR,7937,11109,15376,0.062,551
2019-09-20T15:45:43,42.805,6.029,CST-1368DR,7937,11111,15380,0.061,551
2019-09-20T15:48:44,42.805,6.029,CST-1368DR,7937,11112,15380,0.061,550
2019-09-20T15:51:46,42.805,6.029,CST-1368DR,7937,11110,15378,0.061,551
2019-09-20T15:54:48,42.805,6.029,CST-1368DR,7937,11111,15379,0.061,551
2019-09-20T15:57:49,42.805,6.029,CST-1368DR,7937,11111,15379,0.061,551
2019-09-20T16:00:51,42.805,6.029,CST-1368DR,7937,11111,15380,0.061,551
2019-09-20T16:03:52,42.805,6.029,CST-1368DR,7937,11110,15378,0.061,551
2019-09-20T16:06:54,42.805,6.029,CST-1368DR,7937,11112,15380,0.061,551
2019-09-20T16:09:56,42.805,6.029,CST-1368DR,7937,11111,15379,0.061,551
2019-09-20T16:12:57,42.805,6.029,CST-1368DR,7937,11106,15373,0.063,551
2019-09-20T16:15:59,42.805,6.029,CST-1368DR,7937,11112,15380,0.061,550
2019-09-20T16:19:01,42.805,6.029,CST-1368DR,7937,11112,15380,0.061,551
2019-09-20T16:22:02,42.805,6.029,CST-1368DR,7937,11104,15370,0.064,551
2019-09-20T16:25:04,42.805,6.029,CST-1368DR,7937,11113,15382,0.060,551
2019-09-20T16:28:06,42.805,6.029,CST-1368DR,7937,11113,15382,0.060,551
2019-09-20T16:31:08,42.805,6.029,CST-1368DR,7937,11112,15380,0.061,551
2019-09-20T16:34:09,42.805,6.029,CST-1368DR,7937,11112,15380,0.061,551
2019-09-20T16:37:11,42.805,6.029,CST-1368DR,7937,11112,15380,0.061,551